SCP
0 0 -0 -0 0 0 0 0 0 0 0 0 0 -0 -0 0 0 0 0 0 -0 -0 0 0 0 2 3 2 2 1 1 0 1 0 0 0 0 0 0 0 0 0 0 0
0 0 0 -0 -0 0 0 0 0 0 -0 0 -0 -0 -0 -0 0 0 0 0 0 0 0 0 0 1 1 1 1 1 0 0 0 0 0 0 0 0 0 0 0 0 0 0
0 0 0 0 0 0 0 0 0 -0 0 0 0 -0 -0 -0 0 0 0 0 0 0 0 0 0 0 0 1 0 0 0 0 0 0 0 0 0 0 0 0 0 0 0 0
0 0 0 0 0 0 0 0 0 0 0 0 0 -0 -0 -0 -0 -0 0 -0 0 0 -0 0 0 0 0 0 0 0 0 0 0 0 0 0 0 0 0 0 0 0 0 0
0 0 0 0 0 -0 -0 -0 0 0 0 -0 -0 -0 -0 0 0 0 0 -0 -0 -0 -0 0 0 0 0 0 0 0 0 0 0 0 0 0 0 0 0 0 0 0 0 -0
0 0 0 0 0 0 0 -0 0 0 -0 0 0 -0 -0 -0 0 0 0 0 -0 -0 0 0 0 0 0 0 0 0 -0 0 0 0 0 0 0 0 0 0 0 0 0 -0
0 0 0 0 0 0 0 -0 -0 0 0 -0 -0 0 0 -0 -0 0 0 -0 -0 -0 -0 0 0 0 0 0 0 -0 0 0 0 0 -0 -0 0 0 0 0 -0 0 0 0
0 0 0 0 0 0 0 -0 -0 -0 -0 -0 0 0 -0 0 0 0 0 0 -0 -0 0 0 0 0 0 -0 0 0 -0 -0 -0 -0 0 0 -0 0 0 -0 -0 -0 0 -0
0 0 0 0 0 0 -0 -0 0 -0 -0 0 0 0 0 0 -0 -0 0 0 -0 -0 -0 0 0 0 -0 0 0 0 -0 -0 -0 0 -0 0 0 0 0 0 0 0 0 0
0 0 0 0 0 -0 -0 -0 -0 0 0 0 0 0 -0 -0 -0 0 0 0 -0 0 0 0 0 0 0 0 0 -0 -0 -0 -0 -0 -0 0 0 0 0 0 0 0 0 0
0 0 0 0 -0 -0 -0 0 0 0 0 0 0 0 0 0 0 0 0 0 -0 -0 -0 0 0 0 0 0 -0 -0 -0 -0 -0 -0 -0 0 0 0 0 0 0 0 0 0
0 0 0 0 -0 0 -0 -0 -0 0 0 0 0 0 0 0 0 0 0 0 0 0 0 0 0 0 0 0 0 -0 -0 -0 -0 -0 0 0 0 0 -0 -0 0 0 -0 0
0 0 0 -0 0 0 -0 -0 0 0 0 0 0 0 0 0 0 0 0 -0 0 0 0 0 0 0 0 0 0 -0 -0 -0 0 -0 -0 -0 0 0 0 0 -0 -0 0 -0
0 0 0 -0 -0 0 -0 -0 0 0 0 0 0 0 0 0 0 0 0 0 0 0 0 0 0 0 0 0 0 -0 -0 -0 0 -0 -0 0 0 0 0 0 0 0 -0 0
0 0 0 0 -0 -0 -0 -0 0 0 0 0 0 0 0 0 0 0 0 0 0 0 0 0 0 -0 -0 -0 -0 0 0 -0 -0 -0 -0 0 -0 -0 0 0 0 0 0 0
0 0 -0 0 0 -0 0 0 0 0 0 0 0 0 0 0 0 0 0 0 0 0 0 0 0 0 0 0 0 0 -0 -0 -0 0 0 0 0 0 0 0 0 0 0 0
0 0 -0 -0 -0 -0 -0 0 0 0 0 0 0 0 0 0 0 0 0 0 0 0 0 0 0 0 0 0 0 0 0 -0 -0 -0 -0 0 0 0 0 -0 -0 -0 -0 -0
0 0 -0 0 0 0 0 0 0 0 0 0 0 0 0 0 -0 0 0 0 0 0 0 0 0 0 0 0 0 -0 0 0 -0 0 -0 -0 -0 -0 -0 -0 -0 -0 -0 -0
0 0 0 0 0 0 0 0 0 0 0 0 0 0 0 0 0 -0 0 0 0 0 0 -0 -0 0 0 0 0 0 0 -0 -0 0 -0 -0 -0 -0 0 0 0 -0 -0 -0
0 0 0 0 0 -0 0 0 0 0 0 0 0 0 0 0 0 0 0 0 0 0 0 -0 -0 0 0 0 0 0 0 0 0 0 0 0 0 0 0 -0 -0 -0 0 0
0 0 0 0 0 0 -0 0 0 0 0 0 0 0 0 0 0 0 0 0 0 0 0 -0 -0 0 0 0 0 0 0 0 0 0 0 0 -0 0 -0 0 -0 -0 0 0
0 -0 -0 -0 -0 0 0 -0 0 0 0 0 0 0 0 0 0 0 0 0 0 0 0 0 0 -0 0 0 0 0 0 0 0 -0 0 0 0 0 0 0 0 0 0 0
0 0 -0 -0 -0 -0 -0 0 -0 0 0 0 0 0 0 0 0 0 0 0 0 0 0 -0 -0 -0 -0 0 0 0 0 0 0 0 0 0 0 0 0 0 0 0 0 0
0 0 -0 -0 -0 -0 -0 -0 -0 -0 -0 0 0 0 0 0 0 0 0 0 0 0 0 0 -0 -0 -0 -0 0 0 0 0 0 0 0 0 0 0 0 0 0 0 0 0
0 0 0 -0 0 -0 -0 -0 -0 -0 -0 -0 0 0 0 0 0 0 0 0 0 0 0 0 0 -0 -0 -0 0 0 0 0 0 0 0 0 0 0 0 0 0 0 0 0
0 0 0 -0 0 0 -0 -0 -0 -0 -0 -0 -0 -0 -0 0 0 0 0 0 0 0 0 0 0 0 0 0 -0 -0 0 0 0 0 0 0 0 0 0 0 0 0 0 0
0 -0 0 -0 -0 -0 0 0 -0 -0 -0 -0 -0 -0 -0 -0 -0 0 0 0 0 0 0 0 0 0 0 0 -0 -0 -0 -0 0 0 0 0 0 0 0 0 0 0 0 0
Wind_Speed_500mb
35 40 41 38 39 37 33 36 25 44 39 40 17 8 8 43 39 58 90 102 88 47 56 59 60 71 64 63 60 59 59 59 63 53 53 54 49 43 44 43 38 32 31 31
34 37 36 40 28 33 35 34 21 23 15 37 21 27 24 52 52 54 81 90 61 32 24 30 52 56 71 65 68 70 61 56 56 59 55 53 48 44 39 36 36 34 37 30
10 15 23 17 7 12 17 18 12 9 13 23 22 18 25 55 67 72 62 61 52 31 22 31 77 70 71 74 67 72 70 65 60 55 52 46 41 38 39 36 39 37 28 23
10 12 4 3 28 18 22 18 19 15 18 24 33 53 64 50 46 49 47 34 40 31 15 28 70 78 80 81 78 68 64 59 54 50 48 41 41 42 40 39 36 29 25 22
5 5 22 13 14 13 16 27 11 20 30 37 56 59 46 39 58 58 48 41 43 41 3 25 44 73 83 78 74 69 63 57 51 49 44 44 47 44 39 37 33 32 26 20
6 7 7 8 15 25 16 11 21 28 25 32 43 17 22 68 71 73 63 60 65 51 9 61 46 88 77 68 59 62 62 61 46 41 42 45 44 44 36 30 30 26 25 19
12 10 10 0 21 31 1 7 41 45 47 44 22 28 67 83 82 70 66 71 68 57 24 67 71 65 70 61 61 62 62 43 46 38 41 44 42 35 28 26 29 28 23 16
5 6 11 8 20 4 11 46 44 40 55 56 64 73 70 71 69 72 74 73 60 59 33 57 72 73 65 59 67 63 51 45 40 40 47 44 39 33 33 29 32 29 24 21
8 9 5 28 21 25 54 45 31 48 60 65 67 53 50 60 57 59 67 69 48 55 38 49 59 57 65 79 66 61 52 43 42 40 47 41 35 41 36 30 33 28 23 21
6 11 14 21 22 45 39 42 46 49 56 56 51 46 42 45 51 58 64 52 50 10 54 38 43 55 64 62 60 56 51 49 52 42 41 35 32 31 35 34 32 32 27 22
10 19 16 14 36 43 38 30 51 46 42 38 43 45 45 52 52 51 46 39 39 58 71 57 61 64 57 55 59 55 46 43 49 46 39 35 32 31 30 28 32 33 27 20
5 10 10 20 39 34 31 43 43 42 42 32 35 40 43 48 47 43 37 18 40 33 54 67 71 61 55 58 54 47 47 48 40 33 33 29 28 27 28 27 29 24 21 16
6 12 17 47 33 39 19 44 33 32 29 34 32 32 26 33 23 15 14 24 5 34 72 69 58 56 57 54 48 42 47 42 45 42 37 38 34 33 41 38 30 33 24 16
5 13 19 42 38 17 34 33 27 25 23 20 25 25 24 31 33 47 31 29 9 23 32 58 59 67 58 54 41 46 44 43 43 36 32 38 33 31 33 39 43 40 30 24
14 15 22 39 25 14 40 25 30 28 28 25 27 29 36 30 16 36 33 37 25 23 17 57 65 56 62 57 52 44 42 44 46 41 37 36 33 33 34 37 41 39 40 41
18 30 37 35 30 18 40 30 33 33 34 30 27 28 28 31 20 12 11 5 23 34 44 59 60 66 54 54 46 44 37 37 51 42 46 41 37 32 28 32 37 39 45 43
26 30 33 38 31 23 30 27 26 28 30 31 26 23 20 20 24 20 27 28 47 67 65 52 54 51 39 43 39 37 46 40 48 42 50 45 41 35 34 35 36 38 37 40
16 25 28 32 27 32 21 27 31 32 29 28 18 20 30 28 14 18 13 20 42 57 53 57 63 77 38 46 45 43 50 55 47 45 41 41 43 42 39 41 42 43 39 39
16 26 32 32 28 31 19 25 31 30 30 29 22 24 29 23 7 5 6 17 33 37 41 52 58 53 45 38 39 47 50 55 41 41 39 46 44 44 40 41 34 47 51 48
22 25 28 31 30 33 31 27 22 27 30 32 28 23 26 26 16 10 14 13 19 22 30 34 43 41 39 40 39 27 45 57 53 38 40 37 40 40 42 38 41 52 50 36
25 26 27 30 31 27 35 34 31 32 30 35 34 30 33 29 25 18 23 24 25 22 21 22 28 30 30 33 28 22 37 63 54 43 43 46 52 53 56 57 57 55 50 47
20 22 25 26 26 30 30 33 40 41 37 41 37 41 34 39 34 29 35 35 35 35 33 20 25 32 32 26 31 38 31 55 59 50 47 69 66 64 73 72 65 67 64 57
19 21 19 23 23 27 35 37 33 42 45 46 41 53 58 53 48 51 57 40 37 34 36 22 26 33 35 29 36 47 51 53 59 67 68 57 65 75 77 75 72 67 61 56
20 15 15 15 18 18 24 35 41 36 42 40 40 43 47 52 52 51 55 46 38 26 24 21 19 22 34 41 48 45 46 52 54 61 66 66 68 68 64 63 61 59 54 48
9 10 10 11 11 23 21 26 34 37 40 49 44 39 42 40 46 46 49 50 44 36 34 23 17 15 27 39 45 49 53 51 50 50 52 53 52 52 53 54 54 53 52 53
9 7 13 15 15 22 22 22 22 23 24 29 37 42 41 43 45 49 51 55 54 50 47 39 31 29 32 36 39 44 51 53 49 46 50 56 60 64 66 68 68 68 69 69
6 5 8 20 18 15 15 20 19 21 29 34 36 35 43 41 39 42 53 62 64 65 64 59 53 53 50 47 51 54 56 59 63 64 60 67 72 76 81 80 79 76 69 59
Wind_Direction_500mb
258 271 271 268 266 273 255 254 263 273 267 272 183 189 244 293 275 279 289 287 289 249 248 227 223 188 173 173 166 171 171 166 160 161 162 159 158 157 155 158 163 173 175 168
279 270 268 276 297 285 291 291 12 357 5 352 192 203 218 257 276 266 262 275 294 299 270 243 217 171 160 165 162 157 158 156 159 160 154 151 149 158 160 171 168 172 172 179
261 321 326 305 354 326 1 351 2 356 280 321 327 215 237 254 267 268 288 307 335 309 268 170 149 186 160 151 151 151 150 151 154 153 151 149 155 161 165 168 167 171 181 192
279 311 255 206 43 20 349 2 331 286 319 335 325 326 315 326 352 339 299 331 329 339 311 195 170 158 150 145 146 143 147 148 151 157 156 156 161 162 167 169 172 181 182 194
286 293 275 309 30 22 7 309 20 359 342 333 331 328 304 357 347 335 351 330 311 329 311 223 162 146 140 141 142 142 147 153 160 158 154 161 165 166 174 175 172 180 194 197
327 284 266 56 2 358 296 268 25 351 326 319 327 316 284 314 328 324 327 327 326 325 248 160 160 143 142 142 148 148 158 160 159 156 160 165 162 164 170 177 176 181 182 179
242 262 272 233 345 329 82 334 331 334 318 306 295 273 285 296 308 315 319 321 328 324 296 168 150 141 145 144 153 161 164 151 152 155 162 166 164 165 174 172 170 168 172 167
226 244 278 198 341 252 315 302 296 307 299 296 289 285 284 289 299 311 317 325 329 317 275 172 154 145 148 148 145 144 142 141 145 157 166 163 166 169 165 166 173 171 174 152
225 234 254 319 284 298 302 299 303 304 304 302 303 286 284 285 303 315 317 318 314 318 241 167 153 153 146 138 138 138 143 143 147 153 158 162 166 169 176 177 185 185 189 165
209 250 246 299 304 309 309 295 318 311 309 307 308 322 317 309 311 312 316 321 319 226 217 177 155 147 139 138 138 142 143 145 151 157 152 151 165 182 183 186 192 193 182 167
239 260 302 254 319 324 317 315 322 319 313 304 314 311 307 301 301 312 316 319 249 200 190 160 148 147 141 141 143 143 148 150 148 153 157 169 176 180 185 188 197 203 192 175
257 157 248 319 340 341 321 337 326 326 329 322 316 311 316 317 313 309 296 220 207 237 148 153 151 141 145 144 149 148 151 154 153 160 169 172 175 168 163 165 170 181 178 178
35 352 339 340 340 337 332 337 334 334 331 324 338 352 350 351 334 296 239 216 120 114 144 145 142 146 143 148 151 150 156 156 159 160 162 167 162 158 145 140 147 146 154 130
86 1 348 347 336 336 358 345 347 344 352 352 12 37 38 42 56 65 118 112 117 118 123 147 156 151 157 155 156 161 159 159 159 155 150 149 145 150 151 150 149 150 147 148
84 16 348 335 343 17 359 355 355 3 6 17 33 40 56 54 45 50 111 164 248 281 208 163 157 157 164 159 161 171 174 177 172 162 159 146 136 132 141 150 153 153 149 146
52 15 7 355 7 17 12 6 4 5 13 23 28 38 58 70 103 97 59 183 123 130 137 148 149 157 168 168 169 165 171 176 181 163 159 157 150 150 144 144 158 153 150 148
40 12 355 6 9 26 17 10 7 10 18 23 24 29 49 58 76 129 89 80 93 109 125 123 144 146 154 169 160 164 170 157 158 155 162 159 157 149 144 144 146 148 150 153
45 30 28 15 20 9 21 21 25 29 27 32 34 53 52 56 346 78 82 108 109 113 113 118 135 160 173 144 159 162 168 164 165 163 161 169 156 149 144 142 133 135 140 141
62 38 30 31 28 14 26 19 24 35 51 56 63 63 70 88 359 323 44 94 109 112 98 114 128 134 143 154 146 166 163 163 172 176 164 164 159 152 149 155 143 140 129 123
76 48 40 36 24 27 36 19 24 36 50 56 68 67 72 81 102 121 82 85 97 90 104 112 124 144 131 123 152 155 144 156 154 162 169 169 164 151 146 144 137 134 126 128
79 59 47 48 43 29 27 36 41 42 53 53 59 60 65 63 69 85 88 96 90 97 120 121 112 107 122 141 140 170 144 139 138 140 146 153 169 151 149 146 145 151 151 146
70 68 56 55 56 46 32 36 55 51 58 57 74 87 92 88 81 75 84 97 97 108 110 129 119 109 100 123 151 164 148 157 144 141 152 142 154 163 152 156 159 161 158 156
81 81 61 64 71 58 44 42 61 65 61 66 65 77 77 75 72 67 70 74 93 109 136 148 105 117 129 124 125 132 143 153 152 158 171 157 153 154 153 153 153 158 155 152
101 95 86 63 85 71 59 56 50 68 74 77 79 77 79 75 67 63 65 70 76 98 107 107 106 117 121 126 129 130 128 135 141 147 149 151 150 150 149 149 149 149 148 147
107 92 100 96 79 82 75 71 58 57 73 72 78 88 86 74 76 71 69 70 73 76 86 90 108 131 123 126 128 128 129 130 131 137 144 148 147 147 146 145 142 139 136 132
132 120 84 105 91 108 99 95 97 66 88 82 75 73 81 85 78 80 78 77 75 75 74 78 92 109 118 121 121 124 125 125 129 132 137 137 136 133 130 127 126 125 123 122
150 177 101 112 126 107 93 95 99 86 76 93 98 89 81 85 88 91 93 87 84 81 80 80 86 96 102 110 116 119 119 118 119 118 118 122 121 122 121 119 119 119 117 116
Wind_Speed_850mb
35 40 41 38 39 37 33 36 25 44 39 40 17 8 8 43 39 58 90 102 88 47 56 59 60 71 64 63 60 59 59 59 63 53 53 54 49 43 44 43 38 32 31 31
34 37 36 40 28 33 35 34 21 23 15 37 21 27 24 52 52 54 81 90 61 32 24 30 52 56 71 65 68 70 61 56 56 59 55 53 48 44 39 36 36 34 37 30
10 15 23 17 7 12 17 18 12 9 13 23 22 18 25 55 67 72 62 61 52 31 22 31 77 70 71 74 67 72 70 65 60 55 52 46 41 38 39 36 39 37 28 23
10 12 4 3 28 18 22 18 19 15 18 24 33 53 64 50 46 49 47 34 40 31 15 28 70 78 80 81 78 68 64 59 54 50 48 41 41 42 40 39 36 29 25 22
5 5 22 13 14 13 16 27 11 20 30 37 56 59 46 39 58 58 48 41 43 41 3 25 44 73 83 78 74 69 63 57 51 49 44 44 47 44 39 37 33 32 26 20
6 7 7 8 15 25 16 11 21 28 25 32 43 17 22 68 71 73 63 60 65 51 9 61 46 88 77 68 59 62 62 61 46 41 42 45 44 44 36 30 30 26 25 19
12 10 10 0 21 31 1 7 41 45 47 44 22 28 67 83 82 70 66 71 68 57 24 67 71 65 70 61 61 62 62 43 46 38 41 44 42 35 28 26 29 28 23 16
5 6 11 8 20 4 11 46 44 40 55 56 64 73 70 71 69 72 74 73 60 59 33 57 72 73 65 59 67 63 51 45 40 40 47 44 39 33 33 29 32 29 24 21
8 9 5 28 21 25 54 45 31 48 60 65 67 53 50 60 57 59 67 69 48 55 38 49 59 57 65 79 66 61 52 43 42 40 47 41 35 41 36 30 33 28 23 21
6 11 14 21 22 45 39 42 46 49 56 56 51 46 42 45 51 58 64 52 50 10 54 38 43 55 64 62 60 56 51 49 52 42 41 35 32 31 35 34 32 32 27 22
10 19 16 14 36 43 38 30 51 46 42 38 43 45 45 52 52 51 46 39 39 58 71 57 61 64 57 55 59 55 46 43 49 46 39 35 32 31 30 28 32 33 27 20
5 10 10 20 39 34 31 43 43 42 42 32 35 40 43 48 47 43 37 18 40 33 54 67 71 61 55 58 54 47 47 48 40 33 33 29 28 27 28 27 29 24 21 16
6 12 17 47 33 39 19 44 33 32 29 34 32 32 26 33 23 15 14 24 5 34 72 69 58 56 57 54 48 42 47 42 45 42 37 38 34 33 41 38 30 33 24 16
5 13 19 42 38 17 34 33 27 25 23 20 25 25 24 31 33 47 31 29 9 23 32 58 59 67 58 54 41 46 44 43 43 36 32 38 33 31 33 39 43 40 30 24
14 15 22 39 25 14 40 25 30 28 28 25 27 29 36 30 16 36 33 37 25 23 17 57 65 56 62 57 52 44 42 44 46 41 37 36 33 33 34 37 41 39 40 41
18 30 37 35 30 18 40 30 33 33 34 30 27 28 28 31 20 12 11 5 23 34 44 59 60 66 54 54 46 44 37 37 51 42 46 41 37 32 28 32 37 39 45 43
26 30 33 38 31 23 30 27 26 28 30 31 26 23 20 20 24 20 27 28 47 67 65 52 54 51 39 43 39 37 46 40 48 42 50 45 41 35 34 35 36 38 37 40
16 25 28 32 27 32 21 27 31 32 29 28 18 20 30 28 14 18 13 20 42 57 53 57 63 77 38 46 45 43 50 55 47 45 41 41 43 42 39 41 42 43 39 39
16 26 32 32 28 31 19 25 31 30 30 29 22 24 29 23 7 5 6 17 33 37 41 52 58 53 45 38 39 47 50 55 41 41 39 46 44 44 40 41 34 47 51 48
22 25 28 31 30 33 31 27 22 27 30 32 28 23 26 26 16 10 14 13 19 22 30 34 43 41 39 40 39 27 45 57 53 38 40 37 40 40 42 38 41 52 50 36
25 26 27 30 31 27 35 34 31 32 30 35 34 30 33 29 25 18 23 24 25 22 21 22 28 30 30 33 28 22 37 63 54 43 43 46 52 53 56 57 57 55 50 47
20 22 25 26 26 30 30 33 40 41 37 41 37 41 34 39 34 29 35 35 35 35 33 20 25 32 32 26 31 38 31 55 59 50 47 69 66 64 73 72 65 67 64 57
19 21 19 23 23 27 35 37 33 42 45 46 41 53 58 53 48 51 57 40 37 34 36 22 26 33 35 29 36 47 51 53 59 67 68 57 65 75 77 75 72 67 61 56
20 15 15 15 18 18 24 35 41 36 42 40 40 43 47 52 52 51 55 46 38 26 24 21 19 22 34 41 48 45 46 52 54 61 66 66 68 68 64 63 61 59 54 48
9 10 10 11 11 23 21 26 34 37 40 49 44 39 42 40 46 46 49 50 44 36 34 23 17 15 27 39 45 49 53 51 50 50 52 53 52 52 53 54 54 53 52 53
9 7 13 15 15 22 22 22 22 23 24 29 37 42 41 43 45 49 51 55 54 50 47 39 31 29 32 36 39 44 51 53 49 46 50 56 60 64 66 68 68 68 69 69
6 5 8 20 18 15 15 20 19 21 29 34 36 35 43 41 39 42 53 62 64 65 64 59 53 53 50 47 51 54 56 59 63 64 60 67 72 76 81 80 79 76 69 59
Wind_Direction_850mb
258 271 271 268 266 273 255 254 263 273 267 272 183 189 244 293 275 279 289 287 289 249 248 227 223 188 173 173 166 171 171 166 160 161 162 159 158 157 155 158 163 173 175 168
279 270 268 276 297 285 291 291 12 357 5 352 192 203 218 257 276 266 262 275 294 299 270 243 217 171 160 165 162 157 158 156 159 160 154 151 149 158 160 171 168 172 172 179
261 321 326 305 354 326 1 351 2 356 280 321 327 215 237 254 267 268 288 307 335 309 268 170 149 186 160 151 151 151 150 151 154 153 151 149 155 161 165 168 167 171 181 192
279 311 255 206 43 20 349 2 331 286 319 335 325 326 315 326 352 339 299 331 329 339 311 195 170 158 150 145 146 143 147 148 151 157 156 156 161 162 167 169 172 181 182 194
286 293 275 309 30 22 7 309 20 359 342 333 331 328 304 357 347 335 351 330 311 329 311 223 162 146 140 141 142 142 147 153 160 158 154 161 165 166 174 175 172 180 194 197
327 284 266 56 2 358 296 268 25 351 326 319 327 316 284 314 328 324 327 327 326 325 248 160 160 143 142 142 148 148 158 160 159 156 160 165 162 164 170 177 176 181 182 179
242 262 272 233 345 329 82 334 331 334 318 306 295 273 285 296 308 315 319 321 328 324 296 168 150 141 145 144 153 161 164 151 152 155 162 166 164 165 174 172 170 168 172 167
226 244 278 198 341 252 315 302 296 307 299 296 289 285 284 289 299 311 317 325 329 317 275 172 154 145 148 148 145 144 142 141 145 157 166 163 166 169 165 166 173 171 174 152
225 234 254 319 284 298 302 299 303 304 304 302 303 286 284 285 303 315 317 318 314 318 241 167 153 153 146 138 138 138 143 143 147 153 158 162 166 169 176 177 185 185 189 165
209 250 246 299 304 309 309 295 318 311 309 307 308 322 317 309 311 312 316 321 319 226 217 177 155 147 139 138 138 142 143 145 151 157 152 151 165 182 183 186 192 193 182 167
239 260 302 254 319 324 317 315 322 319 313 304 314 311 307 301 301 312 316 319 249 200 190 160 148 147 141 141 143 143 148 150 148 153 157 169 176 180 185 188 197 203 192 175
257 157 248 319 340 341 321 337 326 326 329 322 316 311 316 317 313 309 296 220 207 237 148 153 151 141 145 144 149 148 151 154 153 160 169 172 175 168 163 165 170 181 178 178
35 352 339 340 340 337 332 337 334 334 331 324 338 352 350 351 334 296 239 216 120 114 144 145 142 146 143 148 151 150 156 156 159 160 162 167 162 158 145 140 147 146 154 130
86 1 348 347 336 336 358 345 347 344 352 352 12 37 38 42 56 65 118 112 117 118 123 147 156 151 157 155 156 161 159 159 159 155 150 149 145 150 151 150 149 150 147 148
84 16 348 335 343 17 359 355 355 3 6 17 33 40 56 54 45 50 111 164 248 281 208 163 157 157 164 159 161 171 174 177 172 162 159 146 136 132 141 150 153 153 149 146
52 15 7 355 7 17 12 6 4 5 13 23 28 38 58 70 103 97 59 183 123 130 137 148 149 157 168 168 169 165 171 176 181 163 159 157 150 150 144 144 158 153 150 148
40 12 355 6 9 26 17 10 7 10 18 23 24 29 49 58 76 129 89 80 93 109 125 123 144 146 154 169 160 164 170 157 158 155 162 159 157 149 144 144 146 148 150 153
45 30 28 15 20 9 21 21 25 29 27 32 34 53 52 56 346 78 82 108 109 113 113 118 135 160 173 144 159 162 168 164 165 163 161 169 156 149 144 142 133 135 140 141
62 38 30 31 28 14 26 19 24 35 51 56 63 63 70 88 359 323 44 94 109 112 98 114 128 134 143 154 146 166 163 163 172 176 164 164 159 152 149 155 143 140 129 123
76 48 40 36 24 27 36 19 24 36 50 56 68 67 72 81 102 121 82 85 97 90 104 112 124 144 131 123 152 155 144 156 154 162 169 169 164 151 146 144 137 134 126 128
79 59 47 48 43 29 27 36 41 42 53 53 59 60 65 63 69 85 88 96 90 97 120 121 112 107 122 141 140 170 144 139 138 140 146 153 169 151 149 146 145 151 151 146
70 68 56 55 56 46 32 36 55 51 58 57 74 87 92 88 81 75 84 97 97 108 110 129 119 109 100 123 151 164 148 157 144 141 152 142 154 163 152 156 159 161 158 156
81 81 61 64 71 58 44 42 61 65 61 66 65 77 77 75 72 67 70 74 93 109 136 148 105 117 129 124 125 132 143 153 152 158 171 157 153 154 153 153 153 158 155 152
101 95 86 63 85 71 59 56 50 68 74 77 79 77 79 75 67 63 65 70 76 98 107 107 106 117 121 126 129 130 128 135 141 147 149 151 150 150 149 149 149 149 148 147
107 92 100 96 79 82 75 71 58 57 73 72 78 88 86 74 76 71 69 70 73 76 86 90 108 131 123 126 128 128 129 130 131 137 144 148 147 147 146 145 142 139 136 132
132 120 84 105 91 108 99 95 97 66 88 82 75 73 81 85 78 80 78 77 75 75 74 78 92 109 118 121 121 124 125 125 129 132 137 137 136 133 130 127 126 125 123 122
150 177 101 112 126 107 93 95 99 86 76 93 98 89 81 85 88 91 93 87 84 81 80 80 86 96 102 110 116 119 119 118 119 118 118 122 121 122 121 119 119 119 117 116